STARLINK-35684

Last updated on Tue Dec 16 2025 00:02:05 GMT+0000 (Coordinated Universal Time)

1 66458U 25262C 25349.23861846 .00041490 00000+0 99412-3 0 9992 2 66458 42.9995 57.1857 0001444 277.3518 82.7174 15.40729446 5947
UTC large
Height (km)
Speed (km/s)
/
Latitude / Longitude
Inclination (degrees)
Orbital Period (minutes)
Azimuth
Elevation
Range (km)
Doppler Factor

Next 0 passes for location: London (51.5072 / 0.1276)

Sorry there are no passes over London.